• En España
  • Lista de países
  • Para 7 días
  • Temperatura del agua
  • Mapa Satelital
  • El tiempo en el mapa
  • Informadores
  • user-avatar
    Iniciar sesión

    Tiempo cada hora Sao Domingos de Rana

    Hoy, 21 Noviembre, Martes

    Tiempo Temperatura Precipitaciones Viento Presión Humedad
    00:00 +13°C° 0 mm 2 mps 761 mmHg 54%
    01:00 +13°C° 0 mm 2 mps 761 mmHg 55%
    02:00 +11°C° 0 mm 3 mps 761 mmHg 57%
    03:00 +11°C° 0 mm 3 mps 761 mmHg 58%
    04:00 +11°C° 0 mm 3 mps 760 mmHg 59%
    05:00 +10°C° 0 mm 3 mps 760 mmHg 59%
    06:00 +11°C° 0 mm 3 mps 760 mmHg 57%
    07:00 +12°C° 0 mm 4 mps 760 mmHg 54%
    08:00 +13°C° 0 mm 4 mps 760 mmHg 51%
    09:00 +15°C° 0 mm 4 mps 760 mmHg 48%
    10:00 +19°C° 0 mm 4 mps 760 mmHg 45%
    11:00 +21°C° 0 mm 4 mps 760 mmHg 41%
    12:00 +21°C° 0 mm 4 mps 760 mmHg 42%
    13:00 +22°C° 0 mm 5 mps 759 mmHg 43%
    14:00 +22°C° 0 mm 5 mps 759 mmHg 44%
    15:00 +20°C° 0 mm 5 mps 759 mmHg 54%
    16:00 +18°C° 0 mm 4 mps 758 mmHg 64%
    17:00 +15°C° 0 mm 4 mps 758 mmHg 74%
    18:00 +15°C° 0 mm 4 mps 758 mmHg 77%
    19:00 +15°C° 0 mm 4 mps 758 mmHg 81%
    20:00 +14°C° 0 mm 4 mps 758 mmHg 85%
    21:00 +14°C° 0 mm 5 mps 758 mmHg 84%
    22:00 +14°C° 0 mm 5 mps 758 mmHg 84%
    23:00 +13°C° 0 mm 5 mps 757 mmHg 83%

    Mañana, 22 Noviembre, Miércoles

    Tiempo Temperatura Precipitaciones Viento Presión Humedad
    00:00 +13°C° 0 mm 5 mps 757 mmHg 81%
    01:00 +13°C° 0 mm 5 mps 757 mmHg 79%
    02:00 +12°C° 0 mm 5 mps 757 mmHg 77%
    03:00 +11°C° 0 mm 6 mps 756 mmHg 76%
    04:00 +11°C° 0 mm 6 mps 756 mmHg 74%
    05:00 +11°C° 0 mm 6 mps 756 mmHg 73%
    06:00 +12°C° 0 mm 7 mps 755 mmHg 71%
    07:00 +14°C° 0 mm 7 mps 755 mmHg 69%
    08:00 +15°C° 0 mm 8 mps 755 mmHg 67%
    09:00 +17°C° 0 mm 8 mps 755 mmHg 61%
    10:00 +19°C° 0 mm 9 mps 755 mmHg 56%
    11:00 +23°C° 0 mm 9 mps 755 mmHg 50%
    12:00 +22°C° 0,2 mm 9 mps 755 mmHg 51%
    13:00 +22°C° 0,2 mm 8 mps 755 mmHg 53%
    14:00 +22°C° 0,2 mm 8 mps 754 mmHg 54%
    15:00 +21°C° 0,2 mm 7 mps 754 mmHg 60%
    16:00 +20°C° 0,2 mm 6 mps 754 mmHg 66%
    17:00 +19°C° 0,2 mm 6 mps 754 mmHg 72%
    18:00 +19°C° 0,1 mm 6 mps 755 mmHg 74%
    19:00 +18°C° 0,1 mm 7 mps 755 mmHg 76%
    20:00 +17°C° 0,1 mm 7 mps 755 mmHg 78%
    21:00 +18°C° 0,2 mm 7 mps 755 mmHg 78%
    22:00 +18°C° 0,2 mm 7 mps 755 mmHg 79%
    23:00 +18°C° 0,2 mm 7 mps 755 mmHg 79%

    Pasado mañana, 23 Noviembre, Jueves

    Tiempo Temperatura Precipitaciones Viento Presión Humedad
    00:00 +19°C° 0,2 mm 6 mps 755 mmHg 81%
    01:00 +17°C° 0,2 mm 6 mps 755 mmHg 82%
    02:00 +17°C° 0,2 mm 6 mps 755 mmHg 84%
    03:00 +17°C° 0 mm 6 mps 755 mmHg 83%
    04:00 +17°C° 0 mm 6 mps 755 mmHg 82%
    05:00 +19°C° 0 mm 6 mps 755 mmHg 81%
    06:00 +19°C° 0 mm 6 mps 755 mmHg 76%
    07:00 +18°C° 0 mm 7 mps 755 mmHg 72%
    08:00 +18°C° 0 mm 7 mps 756 mmHg 68%
    09:00 +21°C° 0 mm 8 mps 756 mmHg 57%
    10:00 +22°C° 0 mm 9 mps 756 mmHg 47%
    11:00 +24°C° 0 mm 10 mps 756 mmHg 37%
    12:00 +23°C° 0 mm 10 mps 756 mmHg 37%
    13:00 +23°C° 0 mm 10 mps 755 mmHg 37%
    14:00 +23°C° 0 mm 10 mps 755 mmHg 37%
    15:00 +22°C° 0 mm 9 mps 755 mmHg 41%
    16:00 +21°C° 0 mm 9 mps 755 mmHg 45%
    17:00 +19°C° 0 mm 9 mps 755 mmHg 49%
    18:00 +19°C° 0 mm 9 mps 755 mmHg 50%
    19:00 +18°C° 0 mm 10 mps 755 mmHg 52%
    20:00 +18°C° 0 mm 10 mps 755 mmHg 53%
    21:00 +18°C° 0 mm 10 mps 755 mmHg 52%
    22:00 +19°C° 0 mm 10 mps 755 mmHg 51%
    23:00 +19°C° 0 mm 10 mps 755 mmHg 50%

    24 Noviembre, Viernes

    Tiempo Temperatura Precipitaciones Viento Presión Humedad
    00:00 +19°C° 0,5 mm 10 mps 755 mmHg 55%
    01:00 +19°C° 0,5 mm 9 mps 755 mmHg 61%
    02:00 +18°C° 0,5 mm 8 mps 755 mmHg 66%
    03:00 +18°C° 0,7 mm 8 mps 755 mmHg 68%
    04:00 +18°C° 0,7 mm 8 mps 755 mmHg 70%
    05:00 +18°C° 0,7 mm 8 mps 755 mmHg 72%
    06:00 +18°C° 0,8 mm 8 mps 755 mmHg 72%
    07:00 +18°C° 0,8 mm 8 mps 755 mmHg 72%
    08:00 +18°C° 0,8 mm 8 mps 755 mmHg 72%
    09:00 +20°C° 1,1 mm 8 mps 755 mmHg 72%
    10:00 +20°C° 1,1 mm 7 mps 755 mmHg 73%
    11:00 +20°C° 1,1 mm 7 mps 755 mmHg 73%
    12:00 +21°C° 0,6 mm 8 mps 755 mmHg 70%
    13:00 +21°C° 0,6 mm 8 mps 754 mmHg 67%
    14:00 +22°C° 0,6 mm 9 mps 754 mmHg 64%
    15:00 +21°C° 0,8 mm 8 mps 754 mmHg 65%
    16:00 +21°C° 0,8 mm 8 mps 754 mmHg 65%
    17:00 +20°C° 0,8 mm 7 mps 755 mmHg 66%
    18:00 +20°C° 0,4 mm 7 mps 755 mmHg 65%
    19:00 +20°C° 0,4 mm 7 mps 755 mmHg 64%
    20:00 +20°C° 0,4 mm 6 mps 756 mmHg 63%
    21:00 +20°C° 0,7 mm 6 mps 756 mmHg 67%
    22:00 +20°C° 0,7 mm 5 mps 756 mmHg 70%
    23:00 +19°C° 0,7 mm 5 mps 756 mmHg 73%

    25 Noviembre, Sábado

    Tiempo Temperatura Precipitaciones Viento Presión Humedad
    00:00 +19°C° 0,9 mm 4 mps 756 mmHg 77%
    01:00 +18°C° 0,9 mm 4 mps 756 mmHg 80%
    02:00 +18°C° 0,9 mm 4 mps 756 mmHg 84%
    03:00 +18°C° 0,9 mm 4 mps 756 mmHg 87%
    04:00 +18°C° 0,9 mm 4 mps 756 mmHg 89%
    05:00 +17°C° 0,9 mm 5 mps 756 mmHg 91%
    06:00 +18°C° 1 mm 4 mps 757 mmHg 91%
    07:00 +18°C° 1 mm 4 mps 757 mmHg 91%
    08:00 +18°C° 1 mm 4 mps 758 mmHg 92%
    09:00 +18°C° 1 mm 4 mps 758 mmHg 89%
    10:00 +18°C° 1 mm 4 mps 758 mmHg 87%
    11:00 +19°C° 1 mm 4 mps 759 mmHg 85%
    12:00 +19°C° 0,3 mm 4 mps 758 mmHg 83%
    13:00 +19°C° 0,3 mm 3 mps 758 mmHg 80%
    14:00 +19°C° 0,3 mm 2 mps 758 mmHg 78%
    15:00 +18°C° 0,2 mm 2 mps 759 mmHg 79%
    16:00 +18°C° 0,2 mm 3 mps 759 mmHg 81%
    17:00 +17°C° 0,2 mm 3 mps 760 mmHg 83%
    18:00 +17°C° 0,3 mm 4 mps 760 mmHg 83%
    19:00 +16°C° 0,3 mm 5 mps 760 mmHg 83%
    20:00 +16°C° 0,3 mm 6 mps 761 mmHg 83%
    21:00 +16°C° 0,3 mm 6 mps 761 mmHg 82%
    22:00 +15°C° 0,3 mm 6 mps 761 mmHg 82%
    23:00 +15°C° 0,3 mm 6 mps 761 mmHg 81%

    26 Noviembre, Domingo

    Tiempo Temperatura Precipitaciones Viento Presión Humedad
    00:00 +15°C° 0,2 mm 6 mps 761 mmHg 81%
    01:00 +15°C° 0,2 mm 6 mps 760 mmHg 80%
    02:00 +15°C° 0,2 mm 6 mps 760 mmHg 80%
    03:00 +14°C° 0,1 mm 6 mps 760 mmHg 80%
    04:00 +14°C° 0,1 mm 6 mps 761 mmHg 81%
    05:00 +14°C° 0,1 mm 6 mps 761 mmHg 81%
    06:00 +14°C° 0,1 mm 6 mps 761 mmHg 81%
    07:00 +14°C° 0,1 mm 6 mps 761 mmHg 81%
    08:00 +15°C° 0,1 mm 7 mps 761 mmHg 81%
    09:00 +16°C° 0 mm 7 mps 761 mmHg 75%
    10:00 +19°C° 0 mm 6 mps 761 mmHg 69%
    11:00 +20°C° 0 mm 6 mps 761 mmHg 63%
    12:00 +21°C° 0 mm 6 mps 761 mmHg 60%
    13:00 +21°C° 0 mm 6 mps 760 mmHg 57%
    14:00 +22°C° 0 mm 5 mps 760 mmHg 54%
    15:00 +21°C° 0 mm 5 mps 760 mmHg 57%
    16:00 +20°C° 0 mm 5 mps 760 mmHg 60%
    17:00 +19°C° 0 mm 5 mps 760 mmHg 63%
    18:00 +19°C° 0 mm 5 mps 760 mmHg 64%
    19:00 +17°C° 0 mm 5 mps 760 mmHg 66%
    20:00 +16°C° 0 mm 5 mps 760 mmHg 68%
    21:00 +16°C° 0 mm 5 mps 760 mmHg 68%
    22:00 +16°C° 0 mm 5 mps 759 mmHg 68%
    23:00 +15°C° 0 mm 5 mps 759 mmHg 67%
    Mostrar más